{"data":{"norad_id":47854,"epoch":"2026-05-25T04:38:06.809568Z","epoch_age_seconds":48631,"freshness":"FRESH","line1":"1 47854U 21020A   26145.19313437 -.00000107  00000+0 -26002-4 0  9995","line2":"2 47854  63.4069 317.0824 0172991   0.4540 359.6613 13.45446019255377","mean_motion":13.45446019,"eccentricity":0.0172991,"inclination_deg":63.4069,"raan_deg":317.0824,"arg_perigee_deg":0.454,"mean_anomaly_deg":359.6613,"bstar":-2.6002e-5,"rev_number":25537,"period_min":107.02770528618,"perigee_km":959.8850052699,"apogee_km":1218.2366084309,"semimajor_km":7467.1978068504,"source":"CELESTRAK","updated_at":"2026-05-25T13:37:56.596215Z"}}